Погода в Шумилово

Россия / Нижегородская область     56°07′52″N   43°39′22″E
темп.,
°C
ветер,
м/с
пор.,
м/с
влажн.,
%
обл.,
%
осадки,
мм/ч
давл.,
гПа
погр.,
м
4 марта, чт
чт400:00−1з5119398 0.1 1003792
03:00−2зюз5119599 0.2 1001596
06:00−2зюз61395100 0.4 997718
09:000зюз81596100 1.6 9941102
12:000з71399100 1.8 992874
15:00−1зсз7127867 3.3 9951351
18:00−4зсз4128549 0.1 997485
21:00−7зсз399331 0.1 999225
5 марта, пт
пт500:00−10зсз239779 0.0 100032
03:00−13сз229646 0.0 100220
06:00−15з229724 0.0 100420
09:00−11з239527 0.0 1005129
12:00−6з249262 0.0 1006407
15:00−4зюз358780 0.1 1007663
18:00−8юз239283 0.1 100749
21:00−8зсз239682 0.2 101090
6 марта, сб
сб600:00−13зсз239438 0.0 101125
03:00−15зсз239725 0.0 101231
06:00−17зсз239870 0.0 101349
09:00−15сз249684 0.1 1015234
12:00−12сз358673 0.0 1015598
15:00−11сз358562 0.1 1014933
18:00−14з239299 0.1 101422
21:00−16зюз239464 0.1 101446
7 марта, вс
вс700:00−16юз379355 0.0 1013129
03:00−15юз4109272 0.0 1011225
06:00−14ююз5139036 0.0 1008344
09:00−10ююз7158768 0.1 1005721
12:00−7ююз81492100 0.7 10001088
15:00−5ююз81493100 1.8 9961161
18:00−5ююз61394100 0.8 992932
21:00−4ююз51295100 1.5 990691
8 марта, пн
пн800:00−8зсз71489100 0.6 989823
03:00−12з6138766 0.6 992368
06:00−14зюз499030 0.0 993206
09:00−12з5108464 0.0 995390
12:00−8з61179100 0.0 997815
15:00−7зсз61183100 0.1 10001166
18:00−10зсз51193100 0.3 1003671
21:00−10зсз4994100 0.6 1006459